Location: Anuling
(14.1239°N, 120.8922°E)
Time: 23:34:14
(UTC+00:00)

CZ-3C R/B - Visible Passes

Search period start: 18 April 2026 00:00
Search period end: 28 April 2026 00:00
Orbit: 278 x 30771 km, 20.3° (Epoch: 18 April)

Date Brightness Start Highest point End Pass type
(mag) Time Alt. Az. Time Alt. Az. Time Alt. Az.
18 Apr 7.0 17:38:57 43° SSW 20:03:25 48° SSW 00:54:37 10° E visible
19 Apr 2.9 10:11:29 10° W 10:14:43 53° S 10:29:14 10° ESE visible
19 Apr 4.7 20:33:16 10° WSW 21:56:44 17° WSW 03:55:08 10° ENE visible
20 Apr 6.1 13:12:30 10° WSW 13:25:52 42° S 21:25:54 10° E visible
21 Apr 7.2 16:20:13 10° WSW 20:18:53 49° SSW 00:34:43 10° E visible
22 Apr 4.9 20:17:42 14° WSW 21:39:02 20° WSW 03:35:12 10° ENE visible
23 Apr 6.0 12:52:23 10° WSW 13:04:33 41° S 21:04:32 10° E visible
24 Apr 7.1 15:59:09 10° WSW 23:51:46 72° SSE 00:14:06 10° E visible
25 Apr 5.1 20:01:42 17° SW 21:20:53 23° SW 03:14:34 10° ENE visible
26 Apr 5.9 12:31:36 10° WSW 12:42:38 39° S 20:42:14 10° E visible
27 Apr 7.0 15:37:26 10° WSW 23:27:26 71° SSE 23:52:45 10° E visible
